Torna al catalogo

ARIANE 2 DEB

LostGTO
NORAD 27032·DEBRIS·🇫🇷 France

Lanciato Jan 27, 1989 da Guiana Space Centre

Loading…

TLE

ObsoletoSource: Space-Track

Epoca: Oct 7, 2025, 03:41 UTC

1 27032U 89006M   25280.15367454 -.00000037  00000-0  22674-3 0  9994
2 27032   7.9098 173.9218 7156059 241.8843 300.6382  2.29753533202738

Traccia ARIANE 2 DEB in tempo reale con AllMySat

Download on the App Store